GW1230 Weather Reports


time (UTC)temp
F
wind
direction
speed
knots
gust
knots
rain 1hr
in
rain 24hr
in
rain mn
in
humidity
%
barometer
mb
20260509203656 66 282 3.5 4.3 0.00 0.00 0.00 60 1019.5
20260509203154 66 261 2.6 2.6 0.00 0.00 0.00 60 1019.3
20260509202650 66 4 4.3 7.0 0.00 0.00 0.00 61 1019.5
20260509202144 66 332 1.7 2.6 0.00 0.00 0.00 62 1019.5
20260509201640 66 287 3.5 5.2 0.00 0.00 0.00 61 1019.5
20260509201137 66 199 3.5 4.3 0.00 0.00 0.00 63 1019.7
20260509200633 66 244 5.2 6.1 0.00 0.00 0.00 62 1019.6
20260509200128 65 303 3.5 5.2 0.00 0.00 0.00 63 1019.8
20260509195624 66 268 6.1 8.7 0.00 0.00 0.00 62 1019.8
20260509195119 66 300 1.7 2.6 0.00 0.00 0.00 63 1019.8
20260509194619 67 299 3.5 6.1 0.00 0.00 0.00 60 1020.0
20260509194117 67 247 4.3 6.1 0.00 0.00 0.00 60 1020.1
20260509193612 68 294 3.5 5.2 0.00 0.00 0.00 59 1020.2
20260509193108 65 317 1.7 2.6 0.00 0.00 0.00 64 1020.3
20260509192605 64 246 0.9 1.7 0.00 0.00 0.00 65 1020.4
20260509192100 65 346 1.7 2.6 0.00 0.00 0.00 64 1020.4
20260509191555 65 294 3.5 4.3 0.00 0.00 0.00 65 1020.4
20260509191051 66 298 1.7 6.1 0.00 0.00 0.00 63 1020.7
20260509190548 66 281 3.5 4.3 0.00 0.00 0.00 65 1020.7
20260509190046 64 268 2.6 2.6 0.00 0.00 0.00 66 1020.7
20260509185543 65 225 3.5 4.3 0.00 0.00 0.00 65 1020.6
20260509185039 64 239 0.9 0.9 0.00 0.00 0.00 67 1020.8
20260509184538 65 308 2.6 2.6 0.00 0.00 0.00 66 1020.8
20260509184033 63 286 0.9 0.9 0.00 0.00 0.00 68 1020.9
20260509183529 63 254 3.5 5.2 0.00 0.00 0.00 68 1020.9
20260509183025 63 203 2.6 2.6 0.00 0.00 0.00 68 1020.8
20260509182521 63 253 2.6 2.6 0.00 0.00 0.00 67 1020.8
20260509182018 62 283 1.7 2.6 0.00 0.00 0.00 70 1021.1
20260509181516 64 285 3.5 5.2 0.00 0.00 0.00 69 1020.8
20260509181010 64 219 1.7 1.7 0.00 0.00 0.00 66 1020.8
20260509180503 62 282 0.9 0.9 0.00 0.00 0.00 73 1021.0
20260509180002 62 278 3.5 4.3 0.00 0.00 0.00 72 1021.1
20260509175457 62 258 2.6 4.3 0.00 0.00 0.00 71 1020.9
20260509174954 62 311 0.9 1.7 0.00 0.00 0.00 72 1021.2
20260509174450 61 318 0.9 1.7 0.00 0.00 0.00 74 1021.2
20260509173944 61 339 1.7 1.7 0.00 0.00 0.00 74 1021.3
20260509173439 61 308 3.5 4.3 0.00 0.00 0.00 73 1021.5
20260509172936 62 256 1.7 2.6 0.00 0.00 0.00 72 1021.3
20260509172433 62 346 2.6 2.6 0.00 0.00 0.00 72 1021.3
20260509171929 62 252 3.5 5.2 0.00 0.00 0.00 69 1021.2
20260509171425 61 222 0.9 0.9 0.00 0.00 0.00 69 1021.2
20260509170921 60 196 0.9 0.9 0.00 0.00 0.00 70 1021.3
20260509170417 60 129 3.5 4.3 0.00 0.00 0.00 69 1021.2
20260509165913 60 177 2.6 2.6 0.00 0.00 0.00 71 1021.2
20260509165407 59 92 3.5 5.2 0.00 0.00 0.00 72 1021.4
20260509164903 61 120 1.7 6.1 0.00 0.00 0.00 69 1021.3
20260509164359 59 85 0.9 1.7 0.00 0.00 0.00 73 1021.6
20260509163855 59 114 2.6 2.6 0.00 0.00 0.00 75 1021.3
20260509163352 59 228 0.9 0.9 0.00 0.00 0.00 77 1021.6
20260509162852 59 186 2.6 2.6 0.00 0.00 0.00 76 1021.5
20260509162350 58 198 0.9 1.7 0.00 0.00 0.00 78 1021.5
20260509161846 58 121 4.3 5.2 0.00 0.00 0.00 79 1021.6
20260509161342 58 192 1.7 1.7 0.00 0.00 0.00 78 1021.5
20260509160838 57 200 1.7 1.7 0.00 0.00 0.00 80 1021.7
20260509160334 57 167 2.6 4.3 0.00 0.00 0.00 79 1021.8
20260509155829 58 143 0.0 0.0 0.00 0.00 0.00 79 1022.0
20260509155326 57 117 3.5 4.3 0.00 0.00 0.00 80 1021.7
20260509154823 56 133 2.6 2.6 0.00 0.00 0.00 82 1021.9
20260509154319 56 149 1.7 2.6 0.00 0.00 0.00 82 1021.9
20260509153816 57 144 3.5 4.3 0.00 0.00 0.00 81 1021.9
20260509153313 55 155 0.9 0.9 0.00 0.00 0.00 85 1022.0
20260509152810 55 118 2.6 2.6 0.00 0.00 0.00 86 1021.8
20260509152307 55 160 2.6 4.3 0.00 0.00 0.00 85 1021.8
20260509151803 55 145 3.5 5.2 0.00 0.00 0.00 85 1021.8
20260509151259 55 139 2.6 4.3 0.00 0.00 0.00 86 1022.1
20260509150758 55 135 1.7 2.6 0.00 0.00 0.00 86 1022.3
20260509150255 56 197 2.6 2.6 0.00 0.00 0.00 84 1022.0
20260509145752 55 46 0.0 0.9 0.00 0.00 0.00 87 1022.4
20260509145252 55 122 1.7 1.7 0.00 0.00 0.00 87 1022.4
20260509144749 54 69 0.0 0.0 0.00 0.00 0.00 88 1022.4
20260509144245 54 145 4.3 4.3 0.00 0.00 0.00 87 1022.4
20260509143743 55 81 2.6 2.6 0.00 0.00 0.00 87 1022.3
20260509143240 54 67 0.0 0.0 0.00 0.00 0.00 87 1022.1
20260509142736 54 77 1.7 1.7 0.00 0.00 0.00 88 1022.2
20260509142232 54 133 0.9 1.7 0.00 0.00 0.00 86 1022.3
20260509141728 55 45 0.9 0.9 0.00 0.00 0.00 86 1022.5
20260509141226 54 42 0.0 0.0 0.00 0.00 0.00 88 1022.5
20260509140722 54 45 0.9 0.9 0.00 0.00 0.00 89 1022.5
20260509140222 53 41 0.0 0.0 0.00 0.00 0.00 90 1022.4
20260509135716 53 47 0.9 0.9 0.00 0.00 0.00 91 1022.4
20260509135214 52 38 0.9 0.9 0.00 0.00 0.00 92 1022.4
20260509134711 51 46 0.9 1.7 0.00 0.00 0.00 93 1022.5
20260509134208 51 355 0.0 0.0 0.00 0.00 0.00 94 1022.5
20260509133705 51 18 0.9 1.7 0.00 0.00 0.00 94 1022.4
20260509133202 50 36 0.9 0.9 0.00 0.00 0.00 95 1022.4
20260509132701 50 11 0.0 0.0 0.00 0.00 0.00 95 1022.5
20260509132159 50 337 0.0 0.0 0.00 0.00 0.00 95 1022.5
20260509131655 50 309 0.0 0.0 0.00 0.00 0.00 95 1022.4
20260509131152 49 308 0.0 0.0 0.00 0.00 0.00 95 1022.2
20260509130647 49 298 0.0 0.0 0.00 0.00 0.00 95 1022.3
20260509130144 49 300 0.0 0.0 0.00 0.00 0.00 95 1022.2
20260509125640 49 312 0.0 0.0 0.00 0.00 0.00 95 1022.3
20260509125137 49 319 0.0 0.0 0.00 0.00 0.00 95 1022.1
20260509124634 49 320 0.0 0.0 0.00 0.00 0.00 95 1022.3
20260509124131 49 342 0.0 0.0 0.00 0.00 0.00 95 1022.4
20260509123629 49 13 0.0 0.0 0.00 0.00 0.00 95 1022.3
20260509123125 49 340 0.0 0.0 0.00 0.00 0.00 94 1022.4
20260509122621 49 324 0.0 0.0 0.00 0.00 0.00 94 1022.3
20260509122119 50 303 0.0 0.0 0.00 0.00 0.00 94 1022.3
20260509121615 50 303 0.0 0.0 0.00 0.00 0.00 94 1022.5
20260509121113 50 296 0.0 0.0 0.00 0.00 0.00 94 1022.5
20260509120611 50 287 0.0 0.0 0.00 0.00 0.00 94 1022.4
20260509120109 50 280 0.0 0.0 0.00 0.00 0.00 93 1022.4
20260509115606 50 279 0.0 0.0 0.00 0.00 0.00 93 1022.5
20260509115103 50 277 0.0 0.0 0.00 0.00 0.00 93 1022.2
20260509114601 50 274 0.0 0.0 0.00 0.00 0.00 93 1022.7
20260509114100 50 275 0.9 0.9 0.00 0.00 0.00 93 1022.5
20260509113558 51 265 1.7 1.7 0.00 0.00 0.00 93 1022.6
20260509113055 51 271 0.9 1.7 0.00 0.00 0.00 93 1022.5
20260509112551 51 272 1.7 1.7 0.00 0.00 0.00 93 1022.4
20260509112049 51 272 0.0 0.0 0.00 0.00 0.00 93 1022.5
20260509111546 51 279 0.0 0.0 0.00 0.00 0.00 92 1022.4
20260509111043 50 289 0.0 0.0 0.00 0.00 0.00 92 1022.5
20260509110540 50 291 0.0 0.0 0.00 0.00 0.00 92 1022.8
20260509110037 50 281 0.0 0.0 0.00 0.00 0.00 92 1022.6
20260509105535 51 275 0.0 0.0 0.00 0.00 0.00 91 1022.7
20260509105032 51 274 0.0 0.0 0.00 0.00 0.00 91 1022.6
20260509104529 51 274 0.0 0.0 0.00 0.00 0.00 91 1022.7
20260509104026 51 255 0.0 0.0 0.00 0.00 0.00 91 1022.7
20260509103523 51 250 0.0 0.0 0.00 0.00 0.00 90 1022.8
20260509103021 52 212 0.9 1.7 0.00 0.00 0.00 90 1022.7
20260509102518 52 197 2.6 2.6 0.00 0.00 0.00 90 1022.8
20260509102015 52 198 2.6 2.6 0.00 0.00 0.00 90 1022.9
20260509101512 52 223 0.9 0.9 0.00 0.00 0.00 90 1022.9
20260509101009 52 195 1.7 1.7 0.00 0.00 0.00 90 1022.7
20260509100506 52 203 3.5 4.3 0.00 0.00 0.00 89 1022.8
20260509100003 52 192 5.2 6.1 0.00 0.00 0.00 89 1022.9
20260509095459 52 166 2.6 2.6 0.00 0.00 0.00 89 1022.9
20260509094957 52 201 2.6 4.3 0.00 0.00 0.00 88 1022.9
20260509094453 53 216 2.6 2.6 0.00 0.00 0.00 88 1022.8
20260509093950 53 191 3.5 4.3 0.00 0.00 0.00 88 1022.7
20260509093449 53 165 4.3 6.1 0.00 0.00 0.00 87 1023.0
20260509092946 53 203 1.7 2.6 0.00 0.00 0.00 87 1022.9
20260509092444 53 209 2.6 2.6 0.00 0.00 0.00 87 1022.9
20260509091942 53 196 1.7 1.7 0.00 0.00 0.00 87 1023.0
20260509091438 53 169 2.6 2.6 0.00 0.00 0.00 87 1022.8
20260509090936 53 166 3.5 4.3 0.00 0.00 0.00 87 1023.0
20260509090433 53 211 1.7 2.6 0.00 0.00 0.00 87 1022.9
20260509085931 53 218 4.3 5.2 0.00 0.00 0.00 87 1022.9
20260509085427 53 219 1.7 1.7 0.00 0.00 0.00 87 1022.9
20260509084923 53 225 2.6 4.3 0.00 0.00 0.00 87 1023.1
20260509084420 53 267 0.0 0.0 0.00 0.00 0.00 87 1023.0
20260509083918 53 258 0.0 0.9 0.00 0.00 0.00 87 1023.0
20260509083415 53 212 0.9 1.7 0.00 0.00 0.00 87 1023.1
20260509082912 53 230 0.0 0.0 0.00 0.00 0.00 87 1023.0
20260509082409 53 195 2.6 4.3 0.00 0.00 0.00 87 1023.1
20260509081905 53 198 2.6 4.3 0.00 0.00 0.00 87 1023.2
20260509081403 53 216 3.5 4.3 0.00 0.00 0.00 87 1022.9
20260509080900 53 232 2.6 4.3 0.00 0.00 0.00 87 1022.9
20260509080358 53 209 3.5 4.3 0.00 0.00 0.00 87 1022.8
20260509075856 53 209 4.3 5.2 0.00 0.00 0.00 86 1022.9
20260509075353 53 201 1.7 1.7 0.00 0.00 0.00 86 1023.0
20260509074850 53 216 1.7 1.7 0.00 0.00 0.00 86 1022.8
20260509074348 53 221 1.7 1.7 0.00 0.00 0.00 86 1022.9
20260509073844 53 229 0.9 1.7 0.00 0.00 0.00 86 1022.9
20260509073340 53 199 3.5 4.3 0.00 0.00 0.00 86 1023.0
20260509072837 53 224 0.9 0.9 0.00 0.00 0.00 86 1023.0
20260509072334 53 235 2.6 2.6 0.00 0.00 0.00 86 1022.9
20260509071830 53 226 0.0 0.0 0.00 0.00 0.00 85 1022.9
20260509071327 53 217 0.9 1.7 0.00 0.00 0.00 85 1022.9
20260509070825 53 216 0.0 0.0 0.00 0.00 0.00 85 1022.9
20260509070321 53 247 0.0 0.0 0.00 0.00 0.00 85 1023.0
20260509065818 53 261 0.0 0.0 0.00 0.00 0.00 85 1022.8
20260509065314 53 242 0.0 0.9 0.00 0.00 0.00 85 1022.6
20260509064810 53 246 0.0 0.9 0.00 0.00 0.00 85 1022.8
20260509064308 53 253 0.0 0.0 0.00 0.00 0.00 85 1022.6
20260509063805 53 262 0.0 0.0 0.00 0.00 0.00 85 1022.8
20260509063301 53 275 0.0 0.0 0.00 0.00 0.00 84 1022.7
20260509062758 53 270 0.0 0.0 0.00 0.00 0.00 84 1022.6
20260509062255 53 224 0.9 1.7 0.00 0.00 0.00 84 1022.6
20260509061752 53 259 0.0 0.9 0.00 0.00 0.00 83 1022.5
20260509061250 54 271 0.0 0.0 0.00 0.00 0.00 83 1022.4
20260509060747 54 245 0.9 0.9 0.00 0.00 0.00 83 1022.5
20260509060244 54 230 0.9 0.9 0.00 0.00 0.00 82 1022.5
20260509055739 54 240 0.0 0.0 0.00 0.00 0.00 82 1022.6
20260509055235 54 258 0.0 0.0 0.00 0.00 0.00 82 1022.6
20260509054732 54 259 0.0 0.0 0.00 0.00 0.00 82 1022.4
20260509054229 54 244 2.6 2.6 0.00 0.00 0.00 81 1022.4
20260509053728 54 254 0.9 1.7 0.00 0.00 0.00 81 1022.6
20260509053224 54 265 0.0 0.9 0.00 0.00 0.00 81 1022.6
20260509052722 55 218 4.3 6.1 0.00 0.00 0.00 80 1022.4
20260509052219 55 217 5.2 7.0 0.00 0.00 0.00 80 1022.7
20260509051717 55 271 0.0 0.9 0.00 0.00 0.00 80 1022.3
20260509051215 55 266 0.0 0.0 0.00 0.00 0.00 79 1022.3
20260509050711 55 241 0.0 0.0 0.00 0.00 0.00 79 1022.3
20260509050208 55 248 2.6 2.6 0.00 0.00 0.00 79 1022.4
20260509045705 55 215 2.6 2.6 0.00 0.00 0.00 79 1022.2
20260509045202 55 273 0.0 0.0 0.00 0.00 0.00 78 1022.2
20260509044659 55 268 0.0 0.0 0.00 0.00 0.00 78 1022.1
20260509044157 55 281 0.0 0.0 0.00 0.00 0.00 78 1022.2
20260509043653 55 301 0.0 0.0 0.00 0.00 0.00 77 1022.1
20260509043149 56 295 0.0 0.0 0.00 0.00 0.00 77 1021.9
20260509042646 56 290 0.0 0.0 0.00 0.00 0.00 76 1022.1
20260509042141 56 266 0.0 0.0 0.00 0.00 0.00 76 1022.2
20260509041638 56 273 0.0 0.0 0.00 0.00 0.00 75 1022.1
20260509041136 57 270 1.7 2.6 0.00 0.00 0.00 74 1022.1
20260509040634 57 254 0.9 0.9 0.00 0.00 0.00 74 1022.1
20260509040131 57 241 0.0 0.9 0.00 0.00 0.00 74 1021.8
20260509035627 57 230 0.9 1.7 0.00 0.00 0.00 74 1021.9
20260509035124 57 257 0.0 0.9 0.00 0.00 0.00 73 1021.9
20260509034622 57 261 0.0 0.0 0.00 0.00 0.00 73 1021.7
20260509034119 58 202 2.6 4.3 0.00 0.00 0.00 72 1021.7
20260509033616 58 241 0.9 2.6 0.00 0.00 0.00 72 1021.6
20260509033113 58 194 3.5 4.3 0.00 0.00 0.00 71 1021.6
20260509032610 58 177 1.7 1.7 0.00 0.00 0.00 71 1021.4
20260509032107 58 239 0.0 0.0 0.00 0.00 0.00 70 1021.6
20260509031605 59 211 4.3 5.2 0.00 0.00 0.00 69 1021.4
20260509031102 59 267 2.6 4.3 0.00 0.00 0.00 69 1021.3
20260509030600 59 178 2.6 2.6 0.00 0.00 0.00 68 1021.2
20260509030056 59 228 1.7 2.6 0.00 0.00 0.00 68 1021.2
20260509025553 59 247 3.5 4.3 0.00 0.00 0.00 67 1021.2
20260509025048 60 269 2.6 4.3 0.00 0.00 0.00 66 1021.1
20260509024544 60 185 6.1 7.0 0.00 0.00 0.00 65 1021.2
20260509024040 60 211 5.2 7.8 0.00 0.00 0.00 64 1021.1
20260509023538 60 214 2.6 2.6 0.00 0.00 0.00 63 1021.2
20260509023035 60 233 1.7 1.7 0.00 0.00 0.00 63 1021.2
20260509022532 60 212 3.5 7.0 0.00 0.00 0.00 63 1021.2
20260509022029 61 191 6.1 8.7 0.00 0.00 0.00 63 1021.2
20260509021526 61 250 2.6 5.2 0.00 0.00 0.00 63 1021.1
20260509021023 61 208 4.3 5.2 0.00 0.00 0.00 63 1021.4
20260509020522 61 186 5.2 6.1 0.00 0.00 0.00 63 1020.9
20260509020018 61 178 4.3 5.2 0.00 0.00 0.00 62 1021.1
20260509015517 61 191 1.7 1.7 0.00 0.00 0.00 62 1021.1
20260509015014 62 204 7.8 8.7 0.00 0.00 0.00 61 1020.9
20260509014511 62 194 5.2 6.1 0.00 0.00 0.00 60 1021.1
20260509014007 62 259 0.9 0.9 0.00 0.00 0.00 60 1021.1
20260509013504 62 200 7.8 8.7 0.00 0.00 0.00 60 1021.3
20260509012959 62 219 2.6 2.6 0.00 0.00 0.00 60 1021.0
20260509012456 62 180 5.2 7.0 0.00 0.00 0.00 60 1021.0
20260509011953 62 189 6.1 8.7 0.00 0.00 0.00 60 1021.0
20260509011451 63 160 8.7 11.3 0.00 0.00 0.00 58 1021.0
20260509010948 62 226 0.9 1.7 0.00 0.00 0.00 58 1021.3
20260509010446 62 275 5.2 7.0 0.00 0.00 0.00 58 1021.3
20260509005942 62 168 8.7 9.6 0.00 0.00 0.00 58 1021.2
20260509005441 62 205 2.6 2.6 0.00 0.00 0.00 56 1021.2
20260509004940 62 204 5.2 7.0 0.00 0.00 0.00 56 1021.4
20260509004437 62 178 7.0 7.8 0.00 0.00 0.00 58 1021.3
20260509003935 62 212 4.3 6.1 0.00 0.00 0.00 57 1021.3
20260509003433 62 195 7.8 8.7 0.00 0.00 0.00 57 1021.2
20260509002929 63 290 5.2 7.8 0.00 0.00 0.00 57 1021.2
20260509002427 62 206 5.2 6.1 0.00 0.00 0.00 57 1021.3
20260509001924 63 195 5.2 7.0 0.00 0.00 0.00 56 1021.3
20260509001421 63 218 8.7 9.6 0.00 0.00 0.00 57 1021.2
20260509000918 62 249 2.6 4.3 0.00 0.00 0.00 57 1021.4
20260509000418 62 288 5.2 7.8 0.00 0.00 0.00 57 1021.4
20260508235911 62 184 4.3 5.2 0.00 0.00 0.00 58 1021.2
20260508235409 63 246 4.3 7.0 0.00 0.00 0.00 55 1021.1
20260508234905 64 181 7.8 8.7 0.00 0.00 0.00 54 1021.1
20260508234402 63 282 0.9 1.7 0.00 0.00 0.00 55 1021.3
20260508233900 62 256 2.6 4.3 0.00 0.00 0.00 56 1021.2
20260508233400 62 204 7.8 9.6 0.00 0.00 0.00 55 1021.1
20260508232856 63 201 7.0 12.2 0.00 0.00 0.00 56 1021.1
20260508232352 62 171 6.1 7.8 0.00 0.00 0.00 56 1021.1
20260508231851 62 147 8.7 9.6 0.00 0.00 0.00 57 1021.1
20260508231346 61 222 6.1 7.0 0.00 0.00 0.00 57 1021.2
20260508230844 62 178 7.0 7.8 0.00 0.00 0.00 58 1021.1
20260508230340 62 272 0.9 2.6 0.00 0.00 0.00 57 1021.2
20260508225838 60 193 7.0 7.0 0.00 0.00 0.00 59 1021.3
20260508225334 61 188 7.0 7.8 0.00 0.00 0.00 59 1021.2
20260508224832 61 198 6.1 7.8 0.00 0.00 0.00 59 1021.2
20260508224330 61 202 6.1 7.8 0.00 0.00 0.00 60 1021.3
20260508223827 62 153 7.8 9.6 0.00 0.00 0.00 59 1021.3
20260508223324 60 183 7.8 8.7 0.00 0.00 0.00 60 1021.2
20260508222821 61 186 4.3 6.1 0.00 0.00 0.00 59 1021.3
20260508222318 60 184 5.2 6.1 0.00 0.00 0.00 61 1021.4
20260508221815 60 180 5.2 7.8 0.00 0.00 0.00 61 1021.2
20260508221310 60 165 6.1 7.8 0.00 0.00 0.00 62 1021.4
20260508220807 60 203 1.7 5.2 0.00 0.00 0.00 62 1021.3
20260508220304 60 218 2.6 4.3 0.00 0.00 0.00 60 1021.2
20260508215800 59 197 5.2 6.1 0.00 0.00 0.00 62 1021.4
20260508215257 60 181 7.8 8.7 0.00 0.00 0.00 62 1021.2
20260508214754 60 278 2.6 2.6 0.00 0.00 0.00 62 1021.0
20260508214251 58 231 2.6 4.3 0.00 0.00 0.00 64 1021.3
20260508213748 59 185 5.2 6.1 0.00 0.00 0.00 63 1021.2
20260508213244 59 148 3.5 4.3 0.00 0.00 0.00 63 1021.3
20260508212741 59 187 5.2 7.0 0.00 0.00 0.00 64 1021.4
20260508212237 58 194 11.3 13.0 0.00 0.00 0.00 65 1021.3
20260508211733 59 218 3.5 4.3 0.00 0.00 0.00 63 1021.3
20260508211229 58 248 4.3 6.1 0.00 0.00 0.00 64 1021.3
20260508210727 58 179 5.2 7.8 0.00 0.00 0.00 65 1021.3
20260508210223 57 125 4.3 6.1 0.00 0.00 0.00 66 1021.4
20260508205720 58 136 7.8 8.7 0.00 0.00 0.00 64 1021.2
20260508205217 59 206 5.2 7.8 0.00 0.00 0.00 65 1021.3
20260508204713 58 164 6.1 7.8 0.00 0.00 0.00 64 1021.3
20260508204210 58 212 4.3 5.2 0.00 0.00 0.00 66 1021.4